Year,Month,Day,Hour,Minute,Value (Times are PST for windspeed in km/hr)
2013,10,02,00,00,0.90
2013,10,02,00,01,1.50
2013,10,02,00,02,0.60
2013,10,02,00,03,1.60
2013,10,02,00,04,1.50
2013,10,02,00,05,0.90
2013,10,02,00,06,1.10
2013,10,02,00,07,0.60
2013,10,02,00,08,2.30
2013,10,02,00,09,2.60
2013,10,02,00,10,2.30
2013,10,02,00,11,2.50
2013,10,02,00,12,1.30
2013,10,02,00,13,1.80
2013,10,02,00,14,3.00
2013,10,02,00,15,1.50
2013,10,02,00,16,1.60
2013,10,02,00,17,1.20
2013,10,02,00,18,0.10
2013,10,02,00,19,0.00
2013,10,02,00,20,0.60
2013,10,02,00,21,0.20
2013,10,02,00,22,0.10
2013,10,02,00,23,0.20
2013,10,02,00,24,0.50
2013,10,02,00,25,0.50
2013,10,02,00,26,0.20
2013,10,02,00,27,0.00
2013,10,02,00,28,0.50
2013,10,02,00,29,0.80
2013,10,02,00,30,0.30
2013,10,02,00,31,0.40
2013,10,02,00,32,0.60
2013,10,02,00,33,0.50
2013,10,02,00,34,0.30
2013,10,02,00,35,0.50
2013,10,02,00,36,0.20
2013,10,02,00,37,2.30
2013,10,02,00,38,1.60
2013,10,02,00,39,0.10
2013,10,02,00,40,0.00
2013,10,02,00,41,0.00
2013,10,02,00,42,0.60
2013,10,02,00,43,1.10
2013,10,02,00,44,0.40
2013,10,02,00,45,0.00
2013,10,02,00,46,1.40
2013,10,02,00,47,1.70
2013,10,02,00,48,0.30
2013,10,02,00,49,0.70
2013,10,02,00,50,1.10
2013,10,02,00,51,1.40
2013,10,02,00,52,0.60
2013,10,02,00,53,0.60
2013,10,02,00,54,0.80
2013,10,02,00,55,0.90
2013,10,02,00,56,0.20
2013,10,02,00,57,0.60
2013,10,02,00,58,0.80
2013,10,02,00,59,0.80
2013,10,02,01,00,1.40
2013,10,02,01,01,0.40
2013,10,02,01,02,0.80
2013,10,02,01,03,0.60
2013,10,02,01,04,0.20
2013,10,02,01,05,1.10
2013,10,02,01,06,0.70
2013,10,02,01,07,0.80
2013,10,02,01,08,0.50
2013,10,02,01,09,2.00
2013,10,02,01,10,1.50
2013,10,02,01,11,0.30
2013,10,02,01,12,1.10
2013,10,02,01,13,1.10
2013,10,02,01,14,0.60
2013,10,02,01,15,1.30
2013,10,02,01,16,0.90
2013,10,02,01,17,0.40
2013,10,02,01,18,1.30
2013,10,02,01,19,1.00
2013,10,02,01,20,1.00
2013,10,02,01,21,0.50
2013,10,02,01,22,0.30
2013,10,02,01,23,1.10
2013,10,02,01,24,1.40
2013,10,02,01,25,1.80
2013,10,02,01,26,1.70
2013,10,02,01,27,0.30
2013,10,02,01,28,0.10
2013,10,02,01,29,0.10
2013,10,02,01,30,0.50
2013,10,02,01,31,0.60
2013,10,02,01,32,0.80
2013,10,02,01,33,0.90
2013,10,02,01,34,0.80
2013,10,02,01,35,1.10
2013,10,02,01,36,1.10
2013,10,02,01,37,1.00
2013,10,02,01,38,0.90
2013,10,02,01,39,1.00
2013,10,02,01,40,1.60
2013,10,02,01,41,0.60
2013,10,02,01,42,0.10
2013,10,02,01,43,0.00
2013,10,02,01,44,0.50
2013,10,02,01,45,0.90
2013,10,02,01,46,0.60
2013,10,02,01,47,0.20
2013,10,02,01,48,0.10
2013,10,02,01,49,0.00
2013,10,02,01,50,0.00
2013,10,02,01,51,0.00
2013,10,02,01,52,0.00
2013,10,02,01,53,0.00
2013,10,02,01,54,0.00
2013,10,02,01,55,0.10
2013,10,02,01,56,0.50
2013,10,02,01,57,0.30
2013,10,02,01,58,0.00
2013,10,02,01,59,0.00
2013,10,02,02,00,0.00
2013,10,02,02,01,0.00
2013,10,02,02,02,0.00
2013,10,02,02,03,0.00
2013,10,02,02,04,0.00
2013,10,02,02,05,1.60
2013,10,02,02,06,1.00
2013,10,02,02,07,0.90
2013,10,02,02,08,0.00
2013,10,02,02,09,0.00
2013,10,02,02,10,0.00
2013,10,02,02,11,0.00
2013,10,02,02,12,0.30
2013,10,02,02,13,0.30
2013,10,02,02,14,0.10
2013,10,02,02,15,0.00
2013,10,02,02,16,0.00
2013,10,02,02,17,0.50
2013,10,02,02,18,0.80
2013,10,02,02,19,1.40
2013,10,02,02,20,1.10
2013,10,02,02,21,0.30
2013,10,02,02,22,1.20
2013,10,02,02,23,0.90
2013,10,02,02,24,1.30
2013,10,02,02,25,1.50
2013,10,02,02,26,1.50
2013,10,02,02,27,0.80
2013,10,02,02,28,1.00
2013,10,02,02,29,0.70
2013,10,02,02,30,2.00
2013,10,02,02,31,1.40
2013,10,02,02,32,0.70
2013,10,02,02,33,1.00
2013,10,02,02,34,0.30
2013,10,02,02,35,0.90
2013,10,02,02,36,1.10
2013,10,02,02,37,1.70
2013,10,02,02,38,0.90
2013,10,02,02,39,2.00
2013,10,02,02,40,3.90
2013,10,02,02,41,2.10
2013,10,02,02,42,1.40
2013,10,02,02,43,2.10
2013,10,02,02,44,0.60
2013,10,02,02,45,1.30
2013,10,02,02,46,1.40
2013,10,02,02,47,2.40
2013,10,02,02,48,2.40
2013,10,02,02,49,2.10
2013,10,02,02,50,3.40
2013,10,02,02,51,2.30
2013,10,02,02,52,3.80
2013,10,02,02,53,1.80
2013,10,02,02,54,1.20
2013,10,02,02,55,0.30
2013,10,02,02,56,1.90
2013,10,02,02,57,3.20
2013,10,02,02,58,3.80
2013,10,02,02,59,2.30
2013,10,02,03,00,2.60
2013,10,02,03,01,2.90
2013,10,02,03,02,4.30
2013,10,02,03,03,2.60
2013,10,02,03,04,1.90
2013,10,02,03,05,2.50
2013,10,02,03,06,2.30
2013,10,02,03,07,3.40
2013,10,02,03,08,2.70
2013,10,02,03,09,2.20
2013,10,02,03,10,3.20
2013,10,02,03,11,2.30
2013,10,02,03,12,2.70
2013,10,02,03,13,2.40
2013,10,02,03,14,1.60
2013,10,02,03,15,2.60
2013,10,02,03,16,2.10
2013,10,02,03,17,2.00
2013,10,02,03,18,1.70
2013,10,02,03,19,2.30
2013,10,02,03,20,2.70
2013,10,02,03,21,2.80
2013,10,02,03,22,2.50
2013,10,02,03,23,2.60
2013,10,02,03,24,3.00
2013,10,02,03,25,1.70
2013,10,02,03,26,2.20
2013,10,02,03,27,1.70
2013,10,02,03,28,4.20
2013,10,02,03,29,4.40
2013,10,02,03,30,3.70
2013,10,02,03,31,3.10
2013,10,02,03,32,2.50
2013,10,02,03,33,2.70
2013,10,02,03,34,4.00
2013,10,02,03,35,3.20
2013,10,02,03,36,3.30
2013,10,02,03,37,3.70
2013,10,02,03,38,1.90
2013,10,02,03,39,3.30
2013,10,02,03,40,2.50
2013,10,02,03,41,3.60
2013,10,02,03,42,3.50
2013,10,02,03,43,4.40
2013,10,02,03,44,3.20
2013,10,02,03,45,3.00
2013,10,02,03,46,3.10
2013,10,02,03,47,3.20
2013,10,02,03,48,2.30
2013,10,02,03,49,2.60
2013,10,02,03,50,2.90
2013,10,02,03,51,3.30
2013,10,02,03,52,2.90
2013,10,02,03,53,1.70
2013,10,02,03,54,3.70
2013,10,02,03,55,2.20
2013,10,02,03,56,3.20
2013,10,02,03,57,2.50
2013,10,02,03,58,3.00
2013,10,02,03,59,2.70
2013,10,02,04,00,2.10
2013,10,02,04,01,2.00
2013,10,02,04,02,1.10
2013,10,02,04,03,1.70
2013,10,02,04,04,1.70
2013,10,02,04,05,2.20
2013,10,02,04,06,1.10
2013,10,02,04,07,2.20
2013,10,02,04,08,1.50
2013,10,02,04,09,0.80
2013,10,02,04,10,1.40
2013,10,02,04,11,2.00
2013,10,02,04,12,0.40
2013,10,02,04,13,0.40
2013,10,02,04,14,0.60
2013,10,02,04,15,0.20
2013,10,02,04,16,0.00
2013,10,02,04,17,0.50
2013,10,02,04,18,0.30
2013,10,02,04,19,0.00
2013,10,02,04,20,0.00
2013,10,02,04,21,0.10
2013,10,02,04,22,0.00
2013,10,02,04,23,0.10
2013,10,02,04,24,0.00
2013,10,02,04,25,0.20
2013,10,02,04,26,0.30
2013,10,02,04,27,1.20
2013,10,02,04,28,1.10
2013,10,02,04,29,1.00
2013,10,02,04,30,0.20
2013,10,02,04,31,0.00
2013,10,02,04,32,0.00
2013,10,02,04,33,0.30
2013,10,02,04,34,0.40
2013,10,02,04,35,0.40
2013,10,02,04,36,0.10
2013,10,02,04,37,0.00
2013,10,02,04,38,0.00
2013,10,02,04,39,0.00
2013,10,02,04,40,0.00
2013,10,02,04,41,0.20
2013,10,02,04,42,0.40
2013,10,02,04,43,0.90
2013,10,02,04,44,0.70
2013,10,02,04,45,0.20
2013,10,02,04,46,0.60
2013,10,02,04,47,0.50
2013,10,02,04,48,1.30
2013,10,02,04,49,0.20
2013,10,02,04,50,0.90
2013,10,02,04,51,0.20
2013,10,02,04,52,0.70
2013,10,02,04,53,1.10
2013,10,02,04,54,1.80
2013,10,02,04,55,0.90
2013,10,02,04,56,0.60
2013,10,02,04,57,0.10
2013,10,02,04,58,1.00
2013,10,02,04,59,0.30
2013,10,02,05,00,0.30
2013,10,02,05,01,0.20
2013,10,02,05,02,0.20
2013,10,02,05,03,0.10
2013,10,02,05,04,0.00
2013,10,02,05,05,1.00
2013,10,02,05,06,1.20
2013,10,02,05,07,1.10
2013,10,02,05,08,0.20
2013,10,02,05,09,0.50
2013,10,02,05,10,0.80
2013,10,02,05,11,0.90
2013,10,02,05,12,1.40
2013,10,02,05,13,1.70
2013,10,02,05,14,1.20
2013,10,02,05,15,0.60
2013,10,02,05,16,0.10
2013,10,02,05,17,1.20
2013,10,02,05,18,1.20
2013,10,02,05,19,1.40
2013,10,02,05,20,0.20
2013,10,02,05,21,0.20
2013,10,02,05,22,1.20
2013,10,02,05,23,2.30
2013,10,02,05,24,2.60
2013,10,02,05,25,0.40
2013,10,02,05,26,1.20
2013,10,02,05,27,1.20
2013,10,02,05,28,3.20
2013,10,02,05,29,0.80
2013,10,02,05,30,2.60
2013,10,02,05,31,2.00
2013,10,02,05,32,1.70
2013,10,02,05,33,1.30
2013,10,02,05,34,1.00
2013,10,02,05,35,0.80
2013,10,02,05,36,1.30
2013,10,02,05,37,0.60
2013,10,02,05,38,1.60
2013,10,02,05,39,0.10
2013,10,02,05,40,1.70
2013,10,02,05,41,0.90
2013,10,02,05,42,0.10
2013,10,02,05,43,0.00
2013,10,02,05,44,0.50
2013,10,02,05,45,0.50
2013,10,02,05,46,1.10
2013,10,02,05,47,1.00
2013,10,02,05,48,0.20
2013,10,02,05,49,0.00
2013,10,02,05,50,1.10
2013,10,02,05,51,0.70
2013,10,02,05,52,0.40
2013,10,02,05,53,0.80
2013,10,02,05,54,0.70
2013,10,02,05,55,0.60
2013,10,02,05,56,0.60
2013,10,02,05,57,0.20
2013,10,02,05,58,0.50
2013,10,02,05,59,1.40
2013,10,02,06,00,0.20
2013,10,02,06,01,0.00
2013,10,02,06,02,0.00
2013,10,02,06,03,0.00
2013,10,02,06,04,0.20
2013,10,02,06,05,0.70
2013,10,02,06,06,0.90
2013,10,02,06,07,0.70
2013,10,02,06,08,0.20
2013,10,02,06,09,0.00
2013,10,02,06,10,0.00
2013,10,02,06,11,0.00
2013,10,02,06,12,0.00
2013,10,02,06,13,0.00
2013,10,02,06,14,0.00
2013,10,02,06,15,0.00
2013,10,02,06,16,0.00
2013,10,02,06,17,0.00
2013,10,02,06,18,0.00
2013,10,02,06,19,0.00
2013,10,02,06,20,0.00
2013,10,02,06,21,0.00
2013,10,02,06,22,0.00
2013,10,02,06,23,0.00
2013,10,02,06,24,0.00
2013,10,02,06,25,0.20
2013,10,02,06,26,0.60
2013,10,02,06,27,0.80
2013,10,02,06,28,1.10
2013,10,02,06,29,0.40
2013,10,02,06,30,0.00
2013,10,02,06,31,0.00
2013,10,02,06,32,0.00
2013,10,02,06,33,0.00
2013,10,02,06,34,0.00
2013,10,02,06,35,0.00
2013,10,02,06,36,0.00
2013,10,02,06,37,0.00
2013,10,02,06,38,0.10
2013,10,02,06,39,0.20
2013,10,02,06,40,0.00
2013,10,02,06,41,0.00
2013,10,02,06,42,0.00
2013,10,02,06,43,0.00
2013,10,02,06,44,0.30
2013,10,02,06,45,0.20
2013,10,02,06,46,0.00
2013,10,02,06,47,0.00
2013,10,02,06,48,0.00
2013,10,02,06,49,0.00
2013,10,02,06,50,0.80
2013,10,02,06,51,0.90
2013,10,02,06,52,1.10
2013,10,02,06,53,0.90
2013,10,02,06,54,1.50
2013,10,02,06,55,1.60
2013,10,02,06,56,2.30
2013,10,02,06,57,1.90
2013,10,02,06,58,1.60
2013,10,02,06,59,1.60
2013,10,02,07,00,2.00
2013,10,02,07,01,1.40
2013,10,02,07,02,1.60
2013,10,02,07,03,1.40
2013,10,02,07,04,1.30
2013,10,02,07,05,0.90
2013,10,02,07,06,0.70
2013,10,02,07,07,0.80
2013,10,02,07,08,1.10
2013,10,02,07,09,1.40
2013,10,02,07,10,1.00
2013,10,02,07,11,0.80
2013,10,02,07,12,0.80
2013,10,02,07,13,0.50
2013,10,02,07,14,1.40
2013,10,02,07,15,1.10
2013,10,02,07,16,0.20
2013,10,02,07,17,0.20
2013,10,02,07,18,0.10
2013,10,02,07,19,0.10
2013,10,02,07,20,0.60
2013,10,02,07,21,1.60
2013,10,02,07,22,3.00
2013,10,02,07,23,0.60
2013,10,02,07,24,0.00
2013,10,02,07,25,0.10
2013,10,02,07,26,0.60
2013,10,02,07,27,0.70
2013,10,02,07,28,1.60
2013,10,02,07,29,1.90
2013,10,02,07,30,1.40
2013,10,02,07,31,0.60
2013,10,02,07,32,1.40
2013,10,02,07,33,1.00
2013,10,02,07,34,2.20
2013,10,02,07,35,6.60
2013,10,02,07,36,3.40
2013,10,02,07,37,0.80
2013,10,02,07,38,0.90
2013,10,02,07,39,2.50
2013,10,02,07,40,1.40
2013,10,02,07,41,1.10
2013,10,02,07,42,2.10
2013,10,02,07,43,1.50
2013,10,02,07,44,2.00
2013,10,02,07,45,1.60
2013,10,02,07,46,2.70
2013,10,02,07,47,2.80
2013,10,02,07,48,3.30
2013,10,02,07,49,2.10
2013,10,02,07,50,1.70
2013,10,02,07,51,2.80
2013,10,02,07,52,1.80
2013,10,02,07,53,1.50
2013,10,02,07,54,0.90
2013,10,02,07,55,2.20
2013,10,02,07,56,1.70
2013,10,02,07,57,1.60
2013,10,02,07,58,2.50
2013,10,02,07,59,1.90
2013,10,02,08,00,1.60
2013,10,02,08,01,0.90
2013,10,02,08,02,2.10
2013,10,02,08,03,2.70
2013,10,02,08,04,2.50
2013,10,02,08,05,1.80
2013,10,02,08,06,3.00
2013,10,02,08,07,2.60
2013,10,02,08,08,1.40
2013,10,02,08,09,2.40
2013,10,02,08,10,2.00
2013,10,02,08,11,1.80
2013,10,02,08,12,1.70
2013,10,02,08,13,1.60
2013,10,02,08,14,2.40
2013,10,02,08,15,2.20
2013,10,02,08,16,1.40
2013,10,02,08,17,0.90
2013,10,02,08,18,0.60
2013,10,02,08,19,1.80
2013,10,02,08,20,0.70
2013,10,02,08,21,0.90
2013,10,02,08,22,0.50
2013,10,02,08,23,1.10
2013,10,02,08,24,1.00
2013,10,02,08,25,0.60
2013,10,02,08,26,0.40
2013,10,02,08,27,0.40
2013,10,02,08,28,0.60
2013,10,02,08,29,0.80
2013,10,02,08,30,0.90
2013,10,02,08,31,1.00
2013,10,02,08,32,1.50
2013,10,02,08,33,1.20
2013,10,02,08,34,1.20
2013,10,02,08,35,0.20
2013,10,02,08,36,0.50
2013,10,02,08,37,0.10
2013,10,02,08,38,0.90
2013,10,02,08,39,1.00
2013,10,02,08,40,1.70
2013,10,02,08,41,1.50
2013,10,02,08,42,1.60
2013,10,02,08,43,0.70
2013,10,02,08,44,0.20
2013,10,02,08,45,0.20
2013,10,02,08,46,0.50
2013,10,02,08,47,0.50
2013,10,02,08,48,0.20
2013,10,02,08,49,0.50
2013,10,02,08,50,0.30
2013,10,02,08,51,0.20
2013,10,02,08,52,0.20
2013,10,02,08,53,0.20
2013,10,02,08,54,0.90
2013,10,02,08,55,0.20
2013,10,02,08,56,0.00
2013,10,02,08,57,0.70
2013,10,02,08,58,0.60
2013,10,02,08,59,0.70
2013,10,02,09,00,0.20
2013,10,02,09,01,0.50
2013,10,02,09,02,1.20
2013,10,02,09,03,1.40
2013,10,02,09,04,2.00
2013,10,02,09,05,1.60
2013,10,02,09,06,0.80
2013,10,02,09,07,1.60
2013,10,02,09,08,4.10
2013,10,02,09,09,2.60
2013,10,02,09,10,1.50
2013,10,02,09,11,1.40
2013,10,02,09,12,1.20
2013,10,02,09,13,1.90
2013,10,02,09,14,3.10
2013,10,02,09,15,1.40
2013,10,02,09,16,1.50
2013,10,02,09,17,0.90
2013,10,02,09,18,0.90
2013,10,02,09,19,3.20
2013,10,02,09,20,2.00
2013,10,02,09,21,3.10
2013,10,02,09,22,2.00
2013,10,02,09,23,2.90
2013,10,02,09,24,2.60
2013,10,02,09,25,1.20
2013,10,02,09,26,2.70
2013,10,02,09,27,1.80
2013,10,02,09,28,1.30
2013,10,02,09,29,1.30
2013,10,02,09,30,1.70
2013,10,02,09,31,2.00
2013,10,02,09,32,1.50
2013,10,02,09,33,0.80
2013,10,02,09,34,1.50
2013,10,02,09,35,0.90
2013,10,02,09,36,1.50
2013,10,02,09,37,1.90
2013,10,02,09,38,1.60
2013,10,02,09,39,1.80
2013,10,02,09,40,2.10
2013,10,02,09,41,3.40
2013,10,02,09,42,3.20
2013,10,02,09,43,2.10
2013,10,02,09,44,2.50
2013,10,02,09,45,2.60
2013,10,02,09,46,1.90
2013,10,02,09,47,2.30
2013,10,02,09,48,2.20
2013,10,02,09,49,1.90
2013,10,02,09,50,2.00
2013,10,02,09,51,1.70
2013,10,02,09,52,1.50
2013,10,02,09,53,1.00
2013,10,02,09,54,0.70
2013,10,02,09,55,0.30
2013,10,02,09,56,1.50
2013,10,02,09,57,1.80
2013,10,02,09,58,1.60
2013,10,02,09,59,1.30
2013,10,02,10,00,1.40
2013,10,02,10,01,1.10
2013,10,02,10,02,1.60
2013,10,02,10,03,1.90
2013,10,02,10,04,1.60
2013,10,02,10,05,1.20
2013,10,02,10,06,1.10
2013,10,02,10,07,2.00
2013,10,02,10,08,3.90
2013,10,02,10,09,2.60
2013,10,02,10,10,1.90
2013,10,02,10,11,1.50
2013,10,02,10,12,2.40
2013,10,02,10,13,1.90
2013,10,02,10,14,2.60
2013,10,02,10,15,1.90
2013,10,02,10,16,0.80
2013,10,02,10,17,1.80
2013,10,02,10,18,1.70
2013,10,02,10,19,1.90
2013,10,02,10,20,2.40
2013,10,02,10,21,2.80
2013,10,02,10,22,1.60
2013,10,02,10,23,2.10
2013,10,02,10,24,1.30
2013,10,02,10,25,2.40
2013,10,02,10,26,2.30
2013,10,02,10,27,2.50
2013,10,02,10,28,1.80
2013,10,02,10,29,1.80
2013,10,02,10,30,1.40
2013,10,02,10,31,3.10
2013,10,02,10,32,1.90
2013,10,02,10,33,1.70
2013,10,02,10,34,3.90
2013,10,02,10,35,4.40
2013,10,02,10,36,4.90
2013,10,02,10,37,3.00
2013,10,02,10,38,2.40
2013,10,02,10,39,2.90
2013,10,02,10,40,2.30
2013,10,02,10,41,4.10
2013,10,02,10,42,3.90
2013,10,02,10,43,2.30
2013,10,02,10,44,3.40
2013,10,02,10,45,2.80
2013,10,02,10,46,2.40
2013,10,02,10,47,1.50
2013,10,02,10,48,1.40
2013,10,02,10,49,1.10
2013,10,02,10,50,0.90
2013,10,02,10,51,0.50
2013,10,02,10,52,1.10
2013,10,02,10,53,0.80
2013,10,02,10,54,0.30
2013,10,02,10,55,1.40
2013,10,02,10,56,2.30
2013,10,02,10,57,1.90
2013,10,02,10,58,1.60
2013,10,02,10,59,1.90
2013,10,02,11,00,2.30
2013,10,02,11,01,2.10
2013,10,02,11,02,1.20
2013,10,02,11,03,1.50
2013,10,02,11,04,1.60
2013,10,02,11,05,1.70
2013,10,02,11,06,2.70
2013,10,02,11,07,2.90
2013,10,02,11,08,4.10
2013,10,02,11,09,3.30
2013,10,02,11,10,4.10
2013,10,02,11,11,2.50
2013,10,02,11,12,1.90
2013,10,02,11,13,4.60
2013,10,02,11,14,2.70
2013,10,02,11,15,2.00
2013,10,02,11,16,1.90
2013,10,02,11,17,2.80
2013,10,02,11,18,2.60
2013,10,02,11,19,2.30
2013,10,02,11,20,2.00
2013,10,02,11,21,2.30
2013,10,02,11,22,5.30
2013,10,02,11,23,6.80
2013,10,02,11,24,2.70
2013,10,02,11,25,3.40
2013,10,02,11,26,3.10
2013,10,02,11,27,2.70
2013,10,02,11,28,1.50
2013,10,02,11,29,3.60
2013,10,02,11,30,2.00
2013,10,02,11,31,1.60
2013,10,02,11,32,1.70
2013,10,02,11,33,0.80
2013,10,02,11,34,2.50
2013,10,02,11,35,3.00
2013,10,02,11,36,5.10
2013,10,02,11,37,5.50
2013,10,02,11,38,4.20
2013,10,02,11,39,5.60
2013,10,02,11,40,4.70
2013,10,02,11,41,3.90
2013,10,02,11,42,4.70
2013,10,02,11,43,6.90
2013,10,02,11,44,2.90
2013,10,02,11,45,3.30
2013,10,02,11,46,4.90
2013,10,02,11,47,4.60
2013,10,02,11,48,3.00
2013,10,02,11,49,2.10
2013,10,02,11,50,1.80
2013,10,02,11,51,2.10
2013,10,02,11,52,3.90
2013,10,02,11,53,4.00
2013,10,02,11,54,7.20
2013,10,02,11,55,5.40
2013,10,02,11,56,6.30
2013,10,02,11,57,6.00
2013,10,02,11,58,6.20
2013,10,02,11,59,8.40
2013,10,02,12,00,4.90
2013,10,02,12,01,6.50
2013,10,02,12,02,4.50
2013,10,02,12,03,3.90
2013,10,02,12,04,7.00
2013,10,02,12,05,4.00
2013,10,02,12,06,3.50
2013,10,02,12,07,4.90
2013,10,02,12,08,3.60
2013,10,02,12,09,5.80
2013,10,02,12,10,3.50
2013,10,02,12,11,3.30
2013,10,02,12,12,5.90
2013,10,02,12,13,4.60
2013,10,02,12,14,3.60
2013,10,02,12,15,3.10
2013,10,02,12,16,2.30
2013,10,02,12,17,1.50
2013,10,02,12,18,5.30
2013,10,02,12,19,3.90
2013,10,02,12,20,4.50
2013,10,02,12,21,3.90
2013,10,02,12,22,3.00
2013,10,02,12,23,2.60
2013,10,02,12,24,2.80
2013,10,02,12,25,3.70
2013,10,02,12,26,3.90
2013,10,02,12,27,3.60
2013,10,02,12,28,5.40
2013,10,02,12,29,8.10
2013,10,02,12,30,3.70
2013,10,02,12,31,5.70
2013,10,02,12,32,5.10
2013,10,02,12,33,3.00
2013,10,02,12,34,3.50
2013,10,02,12,35,4.10
2013,10,02,12,36,5.10
2013,10,02,12,37,4.30
2013,10,02,12,38,3.80
2013,10,02,12,39,4.60
2013,10,02,12,40,5.50
2013,10,02,12,41,4.20
2013,10,02,12,42,3.80
2013,10,02,12,43,3.90
2013,10,02,12,44,3.90
2013,10,02,12,45,3.00
2013,10,02,12,46,1.50
2013,10,02,12,47,2.40
2013,10,02,12,48,5.50
2013,10,02,12,49,7.20
2013,10,02,12,50,6.50
2013,10,02,12,51,4.00
2013,10,02,12,52,3.80
2013,10,02,12,53,3.40
2013,10,02,12,54,2.80
2013,10,02,12,55,4.40
2013,10,02,12,56,1.70
2013,10,02,12,57,2.40
2013,10,02,12,58,5.70
2013,10,02,12,59,6.50
2013,10,02,13,00,5.10
2013,10,02,13,01,4.10
2013,10,02,13,02,4.80
2013,10,02,13,03,3.40
2013,10,02,13,04,4.90
2013,10,02,13,05,6.00
2013,10,02,13,06,5.60
2013,10,02,13,07,7.10
2013,10,02,13,08,7.50
2013,10,02,13,09,6.70
2013,10,02,13,10,6.50
2013,10,02,13,11,7.80
2013,10,02,13,12,7.10
2013,10,02,13,13,7.00
2013,10,02,13,14,4.30
2013,10,02,13,15,2.70
2013,10,02,13,16,4.50
2013,10,02,13,17,4.50
2013,10,02,13,18,3.10
2013,10,02,13,19,3.50
2013,10,02,13,20,4.80
2013,10,02,13,21,2.80
2013,10,02,13,22,5.30
2013,10,02,13,23,5.30
2013,10,02,13,24,3.10
2013,10,02,13,25,5.50
2013,10,02,13,26,6.00
2013,10,02,13,27,5.40
2013,10,02,13,28,2.50
2013,10,02,13,29,3.70
2013,10,02,13,30,3.00
2013,10,02,13,31,5.50
2013,10,02,13,32,4.30
2013,10,02,13,33,3.40
2013,10,02,13,34,7.00
2013,10,02,13,35,4.70
2013,10,02,13,36,4.30
2013,10,02,13,37,4.30
2013,10,02,13,38,5.40
2013,10,02,13,39,5.70
2013,10,02,13,40,5.90
2013,10,02,13,41,5.60
2013,10,02,13,42,4.60
2013,10,02,13,43,5.90
2013,10,02,13,44,4.00
2013,10,02,13,45,3.80
2013,10,02,13,46,3.20
2013,10,02,13,47,4.70
2013,10,02,13,48,3.50
2013,10,02,13,49,2.30
2013,10,02,13,50,5.40
2013,10,02,13,51,4.30
2013,10,02,13,52,3.10
2013,10,02,13,53,3.80
2013,10,02,13,54,7.30
2013,10,02,13,55,4.60
2013,10,02,13,56,3.10
2013,10,02,13,57,7.00
2013,10,02,13,58,4.60
2013,10,02,13,59,3.70
2013,10,02,14,00,3.80
2013,10,02,14,01,2.60
2013,10,02,14,02,3.00
2013,10,02,14,03,2.50
2013,10,02,14,04,2.90
2013,10,02,14,05,2.90
2013,10,02,14,06,7.30
2013,10,02,14,07,3.80
2013,10,02,14,08,6.60
2013,10,02,14,09,2.30
2013,10,02,14,10,5.20
2013,10,02,14,11,3.20
2013,10,02,14,12,5.60
2013,10,02,14,13,5.50
2013,10,02,14,14,3.00
2013,10,02,14,15,3.60
2013,10,02,14,16,2.50
2013,10,02,14,17,2.40
2013,10,02,14,18,2.10
2013,10,02,14,19,2.20
2013,10,02,14,20,1.30
2013,10,02,14,21,2.20
2013,10,02,14,22,2.10
2013,10,02,14,23,1.90
2013,10,02,14,24,3.90
2013,10,02,14,25,3.30
2013,10,02,14,26,3.80
2013,10,02,14,27,4.20
2013,10,02,14,28,2.10
2013,10,02,14,29,0.40
2013,10,02,14,30,1.70
2013,10,02,14,31,1.80
2013,10,02,14,32,1.40
2013,10,02,14,33,2.20
2013,10,02,14,34,3.10
2013,10,02,14,35,2.10
2013,10,02,14,36,1.40
2013,10,02,14,37,3.70
2013,10,02,14,38,1.70
2013,10,02,14,39,2.40
2013,10,02,14,40,3.90
2013,10,02,14,41,1.40
2013,10,02,14,42,2.50
2013,10,02,14,43,0.30
2013,10,02,14,44,1.40
2013,10,02,14,45,2.30
2013,10,02,14,46,2.10
2013,10,02,14,47,2.50
2013,10,02,14,48,1.80
2013,10,02,14,49,1.80
2013,10,02,14,50,0.60
2013,10,02,14,51,1.00
2013,10,02,14,52,1.50
2013,10,02,14,53,0.90
2013,10,02,14,54,1.80
2013,10,02,14,55,1.60
2013,10,02,14,56,3.20
2013,10,02,14,57,2.20
2013,10,02,14,58,2.20
2013,10,02,14,59,1.90
2013,10,02,15,00,2.70
2013,10,02,15,01,2.50
2013,10,02,15,02,1.80
2013,10,02,15,03,2.10
2013,10,02,15,04,1.90
2013,10,02,15,05,1.80
2013,10,02,15,06,0.10
2013,10,02,15,07,1.20
2013,10,02,15,08,1.10
2013,10,02,15,09,2.00
2013,10,02,15,10,2.20
2013,10,02,15,11,2.20
2013,10,02,15,12,4.90
2013,10,02,15,13,2.50
2013,10,02,15,14,2.40
2013,10,02,15,15,3.80
2013,10,02,15,16,2.80
2013,10,02,15,17,2.10
2013,10,02,15,18,2.60
2013,10,02,15,19,1.90
2013,10,02,15,20,4.10
2013,10,02,15,21,2.30
2013,10,02,15,22,2.60
2013,10,02,15,23,2.00
2013,10,02,15,24,2.40
2013,10,02,15,25,1.10
2013,10,02,15,26,3.20
2013,10,02,15,27,3.50
2013,10,02,15,28,2.50
2013,10,02,15,29,0.70
2013,10,02,15,30,0.90
2013,10,02,15,31,2.00
2013,10,02,15,32,0.80
2013,10,02,15,33,1.90
2013,10,02,15,34,1.80
2013,10,02,15,35,1.50
2013,10,02,15,36,1.60
2013,10,02,15,37,2.80
2013,10,02,15,38,3.40
2013,10,02,15,39,2.40
2013,10,02,15,40,2.70
2013,10,02,15,41,2.80
2013,10,02,15,42,2.70
2013,10,02,15,43,3.80
2013,10,02,15,44,3.80
2013,10,02,15,45,4.60
2013,10,02,15,46,3.40
2013,10,02,15,47,2.80
2013,10,02,15,48,4.70
2013,10,02,15,49,5.60
2013,10,02,15,50,3.20
2013,10,02,15,51,2.30
2013,10,02,15,52,1.00
2013,10,02,15,53,1.40
2013,10,02,15,54,3.50
2013,10,02,15,55,4.10
2013,10,02,15,56,4.40
2013,10,02,15,57,3.90
2013,10,02,15,58,4.70
2013,10,02,15,59,4.50
2013,10,02,16,00,3.50
2013,10,02,16,01,1.40
2013,10,02,16,02,1.50
2013,10,02,16,03,1.00
2013,10,02,16,04,0.10
2013,10,02,16,05,3.10
2013,10,02,16,06,5.30
2013,10,02,16,07,4.30
2013,10,02,16,08,1.40
2013,10,02,16,09,4.50
2013,10,02,16,10,1.90
2013,10,02,16,11,1.10
2013,10,02,16,12,0.00
2013,10,02,16,13,3.10
2013,10,02,16,14,2.40
2013,10,02,16,15,1.00
2013,10,02,16,16,3.30
2013,10,02,16,17,4.10
2013,10,02,16,18,2.00
2013,10,02,16,19,3.50
2013,10,02,16,20,3.20
2013,10,02,16,21,0.60
2013,10,02,16,22,0.60
2013,10,02,16,23,0.70
2013,10,02,16,24,2.50
2013,10,02,16,25,0.30
2013,10,02,16,26,2.10
2013,10,02,16,27,2.10
2013,10,02,16,28,2.50
2013,10,02,16,29,1.00
2013,10,02,16,30,0.40
2013,10,02,16,31,1.50
2013,10,02,16,32,1.20
2013,10,02,16,33,1.90
2013,10,02,16,34,1.40
2013,10,02,16,35,1.40
2013,10,02,16,36,1.20
2013,10,02,16,37,0.30
2013,10,02,16,38,0.90
2013,10,02,16,39,2.00
2013,10,02,16,40,2.40
2013,10,02,16,41,2.60
2013,10,02,16,42,3.00
2013,10,02,16,43,2.70
2013,10,02,16,44,2.60
2013,10,02,16,45,1.70
2013,10,02,16,46,1.70
2013,10,02,16,47,1.50
2013,10,02,16,48,1.50
2013,10,02,16,49,2.10
2013,10,02,16,50,2.10
2013,10,02,16,51,2.50
2013,10,02,16,52,1.50
2013,10,02,16,53,2.00
2013,10,02,16,54,1.50
2013,10,02,16,55,2.30
2013,10,02,16,56,1.30
2013,10,02,16,57,0.10
2013,10,02,16,58,0.40
2013,10,02,16,59,2.60
2013,10,02,17,00,0.70
2013,10,02,17,01,1.30
2013,10,02,17,02,0.60
2013,10,02,17,03,0.70
2013,10,02,17,04,0.80
2013,10,02,17,05,1.50
2013,10,02,17,06,0.50
2013,10,02,17,07,1.30
2013,10,02,17,08,1.10
2013,10,02,17,09,1.50
2013,10,02,17,10,1.60
2013,10,02,17,11,2.70
2013,10,02,17,12,2.20
2013,10,02,17,13,2.20
2013,10,02,17,14,1.50
2013,10,02,17,15,1.40
2013,10,02,17,16,1.80
2013,10,02,17,17,2.20
2013,10,02,17,18,2.70
2013,10,02,17,19,2.00
2013,10,02,17,20,2.90
2013,10,02,17,21,2.50
2013,10,02,17,22,1.20
2013,10,02,17,23,1.80
2013,10,02,17,24,0.90
2013,10,02,17,25,1.00
2013,10,02,17,26,2.20
2013,10,02,17,27,1.90
2013,10,02,17,28,1.70
2013,10,02,17,29,3.30
2013,10,02,17,30,1.90
2013,10,02,17,31,1.00
2013,10,02,17,32,0.60
2013,10,02,17,33,1.30
2013,10,02,17,34,1.50
2013,10,02,17,35,2.80
2013,10,02,17,36,2.50
2013,10,02,17,37,1.00
2013,10,02,17,38,1.30
2013,10,02,17,39,2.10
2013,10,02,17,40,0.80
2013,10,02,17,41,0.20
2013,10,02,17,42,0.30
2013,10,02,17,43,0.00
2013,10,02,17,44,0.00
2013,10,02,17,45,0.00
2013,10,02,17,46,0.70
2013,10,02,17,47,0.40
2013,10,02,17,48,0.50
2013,10,02,17,49,0.40
2013,10,02,17,50,0.20
2013,10,02,17,51,0.30
2013,10,02,17,52,0.00
2013,10,02,17,53,0.20
2013,10,02,17,54,0.00
2013,10,02,17,55,0.00
2013,10,02,17,56,0.00
2013,10,02,17,57,0.20
2013,10,02,17,58,0.00
2013,10,02,17,59,0.00
2013,10,02,18,00,0.00
2013,10,02,18,01,0.00
2013,10,02,18,02,0.10
2013,10,02,18,03,0.50
2013,10,02,18,04,0.50
2013,10,02,18,05,0.00
2013,10,02,18,06,0.00